When you browse on this site, cookies collect data to enhance your experience and personalize the content and advertising you see.
Visit our Privacy Policy to learn more. By continuing to use the site, you agree to this use of cookies and data.
  • In Spain
  • List of Countries
  • For 7 days
  • Water Temperature
  • Satellite Maps
  • Weather Map
  • Weather Widgets
  • user-avatar
    Login

    Hourly Weather As-Suuajda

    Today, 22 May, Wednesday

    Time Temperature Precipitation Wind Pressure Humidity
    00:00 +25°C° 0 mm 2 mps 680 mmHg 25%
    01:00 +24°C° 0 mm 2 mps 680 mmHg 26%
    02:00 +24°C° 0 mm 2 mps 680 mmHg 26%
    03:00 +23°C° 0 mm 1 mps 680 mmHg 27%
    04:00 +23°C° 0 mm 1 mps 680 mmHg 27%
    05:00 +23°C° 0 mm 1 mps 680 mmHg 27%
    06:00 +25°C° 0 mm 2 mps 680 mmHg 23%
    07:00 +28°C° 0 mm 2 mps 681 mmHg 19%
    08:00 +30°C° 0 mm 2 mps 682 mmHg 15%
    09:00 +31°C° 0 mm 3 mps 682 mmHg 14%
    10:00 +34°C° 0 mm 5 mps 682 mmHg 12%
    11:00 +35°C° 0 mm 6 mps 682 mmHg 11%
    12:00 +36°C° 0 mm 7 mps 682 mmHg 10%
    13:00 +38°C° 0 mm 8 mps 682 mmHg 10%
    14:00 +38°C° 0 mm 8 mps 682 mmHg 9%
    15:00 +37°C° 0 mm 9 mps 682 mmHg 9%
    16:00 +37°C° 0 mm 9 mps 681 mmHg 10%
    17:00 +35°C° 0 mm 9 mps 681 mmHg 10%
    18:00 +33°C° 0 mm 7 mps 681 mmHg 11%
    19:00 +32°C° 0 mm 6 mps 681 mmHg 12%
    20:00 +30°C° 0 mm 4 mps 681 mmHg 13%
    21:00 +29°C° 0 mm 4 mps 681 mmHg 15%
    22:00 +28°C° 0 mm 3 mps 681 mmHg 16%
    23:00 +27°C° 0 mm 2 mps 681 mmHg 17%

    Tomorrow, 23 May, Thursday

    Time Temperature Precipitation Wind Pressure Humidity
    00:00 +26°C° 0 mm 2 mps 680 mmHg 17%
    01:00 +26°C° 0 mm 1 mps 680 mmHg 17%
    02:00 +25°C° 0 mm 1 mps 680 mmHg 18%
    03:00 +25°C° 0 mm 1 mps 679 mmHg 18%
    04:00 +25°C° 0 mm 1 mps 679 mmHg 19%
    05:00 +24°C° 0 mm 1 mps 679 mmHg 20%
    06:00 +27°C° 0 mm 1 mps 680 mmHg 17%
    07:00 +27°C° 0 mm 0 mps 680 mmHg 14%
    08:00 +30°C° 0 mm 0 mps 681 mmHg 12%
    09:00 +33°C° 0 mm 1 mps 681 mmHg 11%
    10:00 +34°C° 0 mm 1 mps 681 mmHg 11%
    11:00 +35°C° 0 mm 1 mps 681 mmHg 10%
    12:00 +37°C° 0 mm 2 mps 681 mmHg 9%
    13:00 +37°C° 0 mm 3 mps 681 mmHg 9%
    14:00 +38°C° 0 mm 4 mps 680 mmHg 8%
    15:00 +38°C° 0 mm 4 mps 680 mmHg 9%
    16:00 +39°C° 0 mm 5 mps 680 mmHg 9%
    17:00 +38°C° 0 mm 6 mps 679 mmHg 9%
    18:00 +36°C° 0 mm 5 mps 679 mmHg 11%
    19:00 +34°C° 0 mm 4 mps 679 mmHg 13%
    20:00 +31°C° 0 mm 3 mps 679 mmHg 15%
    21:00 +31°C° 0 mm 2 mps 679 mmHg 15%
    22:00 +30°C° 0 mm 2 mps 679 mmHg 16%
    23:00 +29°C° 0 mm 1 mps 679 mmHg 16%

    Day after tomorrow, 24 May, Friday

    Time Temperature Precipitation Wind Pressure Humidity
    00:00 +29°C° 0 mm 1 mps 678 mmHg 16%
    01:00 +28°C° 0 mm 1 mps 678 mmHg 17%
    02:00 +28°C° 0 mm 1 mps 677 mmHg 17%
    03:00 +28°C° 0 mm 2 mps 677 mmHg 17%
    04:00 +28°C° 0 mm 2 mps 677 mmHg 17%
    05:00 +28°C° 0 mm 2 mps 677 mmHg 17%
    06:00 +30°C° 0 mm 3 mps 678 mmHg 15%
    07:00 +33°C° 0 mm 5 mps 679 mmHg 13%
    08:00 +36°C° 0 mm 6 mps 679 mmHg 11%
    09:00 +38°C° 0 mm 6 mps 679 mmHg 10%
    10:00 +39°C° 0 mm 7 mps 679 mmHg 9%
    11:00 +40°C° 0 mm 8 mps 679 mmHg 8%
    12:00 +40°C° 0 mm 7 mps 679 mmHg 8%
    13:00 +41°C° 0 mm 7 mps 679 mmHg 7%
    14:00 +41°C° 0 mm 7 mps 678 mmHg 7%
    15:00 +41°C° 0 mm 7 mps 678 mmHg 7%
    16:00 +40°C° 0 mm 7 mps 678 mmHg 7%
    17:00 +40°C° 0 mm 7 mps 677 mmHg 7%
    18:00 +38°C° 0 mm 6 mps 677 mmHg 8%
    19:00 +35°C° 0 mm 4 mps 677 mmHg 10%
    20:00 +34°C° 0 mm 3 mps 677 mmHg 11%
    21:00 +32°C° 0 mm 2 mps 677 mmHg 12%
    22:00 +32°C° 0 mm 2 mps 677 mmHg 12%
    23:00 +31°C° 0 mm 2 mps 677 mmHg 12%

    25 May, Saturday

    Time Temperature Precipitation Wind Pressure Humidity
    00:00 +30°C° 0.2 mm 2 mps 677 mmHg 13%
    01:00 +30°C° 0.2 mm 1 mps 677 mmHg 15%
    02:00 +29°C° 0.2 mm 1 mps 676 mmHg 16%
    03:00 +28°C° 0.1 mm 1 mps 676 mmHg 17%
    04:00 +28°C° 0.1 mm 1 mps 676 mmHg 17%
    05:00 +28°C° 0.1 mm 2 mps 677 mmHg 17%
    06:00 +29°C° 0 mm 2 mps 677 mmHg 16%
    07:00 +31°C° 0 mm 2 mps 678 mmHg 14%
    08:00 +32°C° 0 mm 2 mps 678 mmHg 13%
    09:00 +34°C° 0 mm 4 mps 679 mmHg 12%
    10:00 +35°C° 0 mm 5 mps 679 mmHg 12%
    11:00 +36°C° 0 mm 6 mps 679 mmHg 12%
    12:00 +36°C° 0 mm 7 mps 679 mmHg 13%
    13:00 +36°C° 0 mm 7 mps 678 mmHg 14%
    14:00 +37°C° 0 mm 8 mps 678 mmHg 15%
    15:00 +35°C° 0 mm 8 mps 678 mmHg 17%
    16:00 +34°C° 0 mm 8 mps 678 mmHg 20%
    17:00 +33°C° 0 mm 8 mps 678 mmHg 22%
    18:00 +30°C° 0 mm 7 mps 677 mmHg 26%
    19:00 +28°C° 0 mm 6 mps 677 mmHg 29%
    20:00 +27°C° 0 mm 5 mps 677 mmHg 33%
    21:00 +26°C° 0 mm 4 mps 677 mmHg 33%
    22:00 +25°C° 0 mm 4 mps 677 mmHg 33%
    23:00 +23°C° 0 mm 4 mps 677 mmHg 34%

    26 May, Sunday

    Time Temperature Precipitation Wind Pressure Humidity
    00:00 +23°C° 0 mm 4 mps 677 mmHg 35%
    01:00 +22°C° 0 mm 3 mps 677 mmHg 36%
    02:00 +22°C° 0 mm 3 mps 677 mmHg 36%
    03:00 +22°C° 0 mm 3 mps 677 mmHg 37%
    04:00 +21°C° 0 mm 3 mps 677 mmHg 37%
    05:00 +21°C° 0 mm 2 mps 677 mmHg 37%
    06:00 +22°C° 0 mm 3 mps 677 mmHg 32%
    07:00 +25°C° 0 mm 3 mps 678 mmHg 26%
    08:00 +26°C° 0 mm 3 mps 678 mmHg 21%
    09:00 +28°C° 0 mm 4 mps 678 mmHg 20%
    10:00 +29°C° 0 mm 4 mps 678 mmHg 18%
    11:00 +30°C° 0 mm 5 mps 678 mmHg 16%
    12:00 +32°C° 0 mm 6 mps 678 mmHg 15%
    13:00 +33°C° 0 mm 6 mps 678 mmHg 14%
    14:00 +34°C° 0 mm 7 mps 678 mmHg 13%
    15:00 +33°C° 0 mm 7 mps 677 mmHg 14%
    16:00 +32°C° 0 mm 7 mps 677 mmHg 14%
    17:00 +30°C° 0 mm 6 mps 677 mmHg 15%
    18:00 +29°C° 0 mm 5 mps 677 mmHg 16%
    19:00 +28°C° 0 mm 4 mps 677 mmHg 17%
    20:00 +27°C° 0 mm 3 mps 677 mmHg 18%
    21:00 +26°C° 0 mm 3 mps 677 mmHg 19%
    22:00 +25°C° 0 mm 2 mps 677 mmHg 20%
    23:00 +25°C° 0 mm 2 mps 677 mmHg 21%

    27 May, Monday

    Time Temperature Precipitation Wind Pressure Humidity
    00:00 +25°C° 0 mm 2 mps 677 mmHg 21%
    01:00 +24°C° 0 mm 2 mps 676 mmHg 21%
    02:00 +24°C° 0 mm 2 mps 676 mmHg 22%
    03:00 +23°C° 0 mm 2 mps 676 mmHg 24%
    04:00 +23°C° 0 mm 1 mps 676 mmHg 26%
    05:00 +22°C° 0 mm 1 mps 676 mmHg 29%
    06:00 +24°C° 0 mm 1 mps 677 mmHg 24%
    07:00 +26°C° 0 mm 1 mps 677 mmHg 19%
    08:00 +28°C° 0 mm 1 mps 678 mmHg 15%
    09:00 +29°C° 0.1 mm 2 mps 678 mmHg 14%
    10:00 +31°C° 0.1 mm 2 mps 678 mmHg 13%
    11:00 +33°C° 0.1 mm 3 mps 678 mmHg 13%
    12:00 +34°C° 0 mm 3 mps 678 mmHg 13%
    13:00 +35°C° 0 mm 4 mps 678 mmHg 13%
    14:00 +35°C° 0 mm 4 mps 677 mmHg 14%
    15:00 +35°C° 0 mm 5 mps 677 mmHg 14%
    16:00 +34°C° 0 mm 5 mps 677 mmHg 15%
    17:00 +34°C° 0 mm 5 mps 676 mmHg 16%
    18:00 +32°C° 0.1 mm 4 mps 676 mmHg 20%
    19:00 +30°C° 0.1 mm 4 mps 676 mmHg 23%
    20:00 +28°C° 0.1 mm 3 mps 676 mmHg 27%
    21:00 +27°C° 0.2 mm 2 mps 676 mmHg 30%
    22:00 +27°C° 0.2 mm 2 mps 676 mmHg 33%
    23:00 +26°C° 0.2 mm 2 mps 677 mmHg 37%
    Show more